{"data":{"norad_id":47565,"intl_designator":"2021-009T","name":"STARLINK-1964","alt_names":[],"object_type":"PAYLOAD","status":"ACTIVE","operator":null,"country":"US","launch_date":"2021-02-04","launch_site_code":"AFETR","launch_vehicle":null,"mission":null,"orbit_class":"UNKNOWN","rcs_meters":null,"size_class":null,"mass_kg":null,"dimensions":null,"purposes":["comms"],"wikipedia_slug":null,"has_3d_model":false,"image_url":null,"decayed_at":null,"tle_current":{"epoch":"2026-05-25T00:00:02.000160Z","epoch_age_seconds":71726,"freshness":"FRESH","line1":"1 47565U 21009T   26145.00002315  .00234310  00000+0  87569-3 0  9998","line2":"2 47565  53.0379 308.4810 0007396 235.9520 152.2233 15.86747152  5910","mean_motion":15.86747152,"eccentricity":0.0007396,"inclination_deg":53.0379,"raan_deg":308.481,"arg_perigee_deg":235.952,"mean_anomaly_deg":152.2233,"bstar":0.00087569,"rev_number":591,"period_min":90.751699045747,"perigee_km":306.46210747631,"apogee_km":316.35728494934,"semimajor_km":6689.5466962128,"source":"CELESTRAK","updated_at":"2026-05-25T13:38:16.556840Z"}}}